Weather History for Cheyenne, WY

Change the Weather History Date:

Tuesday, September 24, 2013

  Actual Average Record
Temperature  
Mean Temperature 55 °F 54 °F  
Max Temperature 67 °F 68 °F 85 °F (1885)
Min Temperature 42 °F 41 °F 20 °F (1926)
Degree Days  
Heating Degree Days 10 11  
Month to date heating degree days 100 152  
Since 1 July heating degree days 115 208  
Cooling Degree Days 0 0  
Month to date cooling degree days 67 21  
Year to date cooling degree days 520 347  
Growing Degree Days 4 (Base 50)    
Moisture  
Dew Point 36 °F    
Average Humidity 52    
Maximum Humidity 70    
Minimum Humidity 34    
Precipitation  
Precipitation 0.00 in 0.05 in 1.09 in (1932)
Month to date precipitation 6.80 1.22  
Year to date precipitation 15.23 13.67  
Snow  
Snow 0.00 in 0.00 in 6.40 in (2000)
Month to date snowfall 0.0 0.7  
Since 1 July snowfall 0.0 0.7  
Snow Depth 0.00 in    
Sea Level Pressure  
Sea Level Pressure 29.92 in    
Wind  
Wind Speed 11 mph (SSW)    
Max Wind Speed 21 mph    
Max Gust Speed 25 mph    
Visibility 10 miles    
Events      
T = Trace of Precipitation, MM = Missing Value Source: NWS Daily Summary

Daily Weather History Graph

Daily Weather History Graph

Search for Another Location

Airport:

Trip Planner

Search our weather history database for the weather conditions in past years. The results will help you decide how hot, cold, wet, or windy it might be!

Date:

Astronomy

Sep. 24, 2013 Rise Set
Actual Time 6:49 AM MDT 6:52 PM MDT
Civil Twilight 6:21 AM MDT 7:19 PM MDT
Nautical Twilight 5:49 AM MDT 7:52 PM MDT
Astronomical Twilight 5:16 AM MDT 8:24 PM MDT
Moon 10:09 PM MDT (9/24) 12:08 PM MDT (9/24)
Length of Visible Light 12h 58m
Length of Day
12h 03m
Waning Gibbous, 72% of the Moon is Illuminated
Sep 24
Waning Gibbous
Sep 26
Last Quarter
Oct 4
New
Oct 11
First Quarter
Oct 18
Full

Hourly Weather History & Observations

Time (MDT) Temp. Dew Point Humidity Pressure Visibility Wind Dir Wind Speed Gust Speed Precip Events Conditions
12:53 AM 46.9 °F 33.1 °F 59% 29.97 in 10.0 mi Calm Calm - N/A   Clear
1:53 AM 48.9 °F 33.1 °F 54% 29.97 in 10.0 mi WNW 4.6 mph - N/A   Clear
2:53 AM 52.0 °F 33.1 °F 49% 29.94 in 10.0 mi WNW 12.7 mph - N/A   Clear
3:53 AM 52.0 °F 32.0 °F 47% 29.94 in 10.0 mi NW 4.6 mph - N/A   Clear
4:53 AM 48.9 °F 32.0 °F 52% 29.97 in 10.0 mi WNW 6.9 mph - N/A   Clear
5:53 AM 43.0 °F 34.0 °F 71% 30.01 in 10.0 mi Calm Calm - N/A   Clear
6:53 AM 46.9 °F 33.1 °F 59% 30.01 in 10.0 mi SW 5.8 mph - N/A   Clear
7:53 AM 51.1 °F 35.1 °F 54% 30.02 in 10.0 mi WSW 11.5 mph - N/A   Clear
8:53 AM 55.0 °F 35.1 °F 47% 30.02 in 10.0 mi SSW 12.7 mph - N/A   Clear
9:53 AM 57.0 °F 37.9 °F 49% 30.02 in 10.0 mi South 13.8 mph - N/A   Clear
10:53 AM 60.1 °F 37.9 °F 44% 30.01 in 10.0 mi South 13.8 mph - N/A   Clear
11:53 AM 62.1 °F 36.0 °F 38% 29.99 in 10.0 mi SSW 12.7 mph - N/A   Clear
12:53 PM 63.0 °F 37.0 °F 38% 29.97 in 10.0 mi South 15.0 mph 23.0 mph N/A   Clear
1:53 PM 64.0 °F 39.0 °F 40% 29.93 in 10.0 mi SSW 15.0 mph - N/A   Clear
2:53 PM 66.0 °F 37.9 °F 36% 29.88 in 10.0 mi South 16.1 mph 23.0 mph N/A   Clear
3:53 PM 66.0 °F 37.0 °F 34% 29.86 in 10.0 mi South 16.1 mph 25.3 mph N/A   Clear
4:53 PM 66.0 °F 37.0 °F 34% 29.84 in 10.0 mi South 15.0 mph 21.9 mph N/A   Clear
5:53 PM 64.0 °F 37.0 °F 37% 29.86 in 10.0 mi South 15.0 mph 21.9 mph N/A   Clear
6:53 PM 61.0 °F 36.0 °F 39% 29.83 in 10.0 mi South 13.8 mph - N/A   Clear
7:53 PM 57.9 °F 36.0 °F 44% 29.82 in 10.0 mi South 15.0 mph - N/A   Clear
8:53 PM 55.9 °F 37.0 °F 49% 29.81 in 10.0 mi South 10.4 mph - N/A   Clear
9:53 PM 54.0 °F 36.0 °F 51% 29.81 in 10.0 mi South 10.4 mph - N/A   Clear
10:53 PM 53.1 °F 36.0 °F 52% 29.79 in 10.0 mi South 9.2 mph - N/A   Clear
11:53 PM 50.0 °F 36.0 °F 59% 29.77 in 10.0 mi South 9.2 mph - N/A   Clear